Location: Nianha
(10.8000°N, 4.6333°W)
Time: 05:41:16
(UTC+00:00)

ARIANE 5 DEB (SYLDA) - Pass Details

Date: 14 November 2019
Orbit: 849 x 35973 km, 2.0° (Epoch: 17 January)

Event Time Altitude Azimuth Distance (km) Brightness Sun altitude
Exits shadow 05:41:35 - 252° (WSW) 3,254 5.2 -8.3°
Reaches altitude 10° 05:43:14 10° 245° (WSW) 2,500 4.7 -8.0°
Maximum altitude 05:47:31 36° 176° (S) 1,420 4.1 -6.9°
Drops below altitude 10° 05:54:10 10° 108° (ESE) 3,872 8.1 -5.4°
Sets 05:59:53 0° 100° (E) 6,459 9.8 -4.1°
